User: anonymous   Login
Location: Lawrence Hall of Science
(37.8785°N, 122.2415°W)
Time: 19:59:43
(UTC-07:00)
Language:

Cosmos 2098 Rocket - Orbit

View from above orbital plane
View from above orbital plane
View from above satellite
View from above satellite

Ground track
Ground track

The orbit data is extracted from the following two-line orbital elements,

1 20775U 90078B   16204.88707151 +.00001357 +00000-0 +68733-4 0  9992
2 20775 082.9323 317.7192 0595843 275.2717 078.0789 14.28614410301728
Epoch (UTC): 22 July 2016 21:17:22
Eccentricity: 0.0595843
inclination: 82.9323°
perigee height: 369 km
apogee height: 1224 km
right ascension of ascending node: 317.7192°
argument of perigee: 275.2717°
revolutions per day: 14.28614410
mean anomaly at epoch: 78.0789°
orbit number at epoch: 30172

The dashed part of the orbit path shows where the satellite is in the earth's shadow,  

DLR